SPACEMOBILE-SSR02 DEB, 62370

Orbit data source: Space-Track

SPACEMOBILE-SSR02 DEB, 62370 is space debris in LEO originally from a launch on Thu, 12 Sep 2024 UTC launched from the Air Force Eastern Test Range (AFETR). Debris objects in space refer to the collection of defunct objects orbiting the Earth. Examples of debris include non-operational satellites, rocket bodies, and fragments generated from explosions, collisions, or faulty payload assembly.

Loading next visibility...
Identifier
62370, 2024-163G
Orbit
LEO
Country
Flag of USUS
Related business
Manufacturer
AST & Science
Mission
Spacecraft
Bus & Motor
BW3 LVA, Unknown motor
Mass
150 kg wet, 150 kg dry
Launch date (UTC)
2024-09-12 (1 year ago)
Launch vehicle
Unknown
Launch site
Air Force Eastern Test Range (AFETR)
Object type
Payload
Rocket body
Debris
Shape & HBR
Cyl, 3.8 m
Radar Cross Section
1.963 m², Large (>1 m²)

Expand to show TLE details & history
Last TLE update: 11 hours ago

TLE from 11 hours ago
0 SPACEMOBILE-SSR02 DEB
1 62370U 24163G   25288.55619819  .00021986  00000-0  72247-3 0  9994
2 62370  52.9473 339.5901 0009118 117.1667 243.0262 15.31470204 60730
Epoch: 2025-10-15T13:20Z
TLE epoch observation values (Epoch: 2025-10-15T13:20:55.523Z)
Latitude
-0.00003°
Longitude
115.03015°
Altitude
475.14 km
Speed
7.628 km/s
True Right ascension
22h 38m 21s
True Declination
0° 00' 00"
Sunlit
Object was in full shadow at epoch
Visualization orbit readout
Latitude
Unknown
Longitude
Unknown
Altitude
Unknown
Speed
Unknown
Apparent Right ascension
Unknown
Apparent Declination
Unknown
Sunlit
N/A
Visualization observer readout
Local Sidereal Time
18:36:34
Azimuth
Unknown
Elevation
Unknown
Doppler factor
Unknown
Orbital elements
Apogee altitude
477.962 km
Perigee altitude
465.47 km
Semi-major axis
6,849.853 km
Eccentricity
0.00091
Inclination
52.9473°
RAAN
339.5901°
Arg. of periapsis
117.1667°
True anomaly
242.93313°
Mean anomaly
243.0262°
Eccentric anomaly
242.97966°
Mean motion
3.82844 °/min
Orbital period
94.03 mins
BSTAR
0.00072247
Loading maneuver chart data...
Computing Atmospheric mass density...
Loading historical data...
Loading historical data...
Loading historical data...
Loading historical data...
Loading historical data...
Loading historical data...
Loading historical data...

Documentation

Showing up to 5 results
|